| time (UTC) | temp F | wind direction | speed MPH | gust MPH | rain 1hr in | rain 24hr in | rain mn in | humidity % | barometer mb |
| 20260505053012 | 37 | 341 | 1.0 | 3.0 | 0.00 | 0.00 | 0.00 | 55 | 1015.2 |
| 20260505052511 | 37 | 341 | 1.0 | 3.0 | 0.00 | 0.00 | 0.00 | 55 | 1015.1 |
| 20260505052013 | 37 | 346 | 1.0 | 4.0 | 0.00 | 0.00 | 0.00 | 54 | 1015.1 |
| 20260505051510 | 37 | 355 | 1.0 | 3.0 | 0.00 | 0.00 | 0.00 | 54 | 1015.2 |
| 20260505051010 | 37 | 355 | 0.0 | 2.0 | 0.00 | 0.00 | 0.00 | 54 | 1015.1 |
| 20260505050515 | 37 | 355 | 0.0 | 3.0 | 0.00 | 0.00 | 0.00 | 54 | 1015.0 |
| 20260505041506 | 39 | 16 | 4.0 | 9.0 | 0.00 | 0.00 | 0.00 | 51 | 1014.6 |
| 20260505041004 | 39 | 5 | 3.0 | 9.0 | 0.00 | 0.00 | 0.00 | 51 | 1014.5 |
| 20260505040503 | 38 | 11 | 4.0 | 8.0 | 0.00 | 0.00 | 0.00 | 52 | 1014.4 |
| 20260505040002 | 38 | 360 | 3.0 | 10.0 | 0.00 | 0.00 | 0.00 | 51 | 1014.4 |
| 20260505035505 | 39 | 10 | 4.0 | 9.0 | 0.00 | 0.00 | 0.00 | 51 | 1014.3 |
| 20260505035101 | 39 | 355 | 4.0 | 9.0 | 0.00 | 0.00 | 0.00 | 50 | 1014.2 |
| 20260505034559 | 39 | 17 | 3.0 | 8.0 | 0.00 | 0.00 | 0.00 | 50 | 1014.1 |
| 20260505034058 | 40 | 25 | 3.0 | 10.0 | 0.00 | 0.00 | 0.00 | 49 | 1014.1 |
| 20260505033658 | 40 | 5 | 4.0 | 10.0 | 0.00 | 0.00 | 0.00 | 49 | 1014.1 |
| 20260505033112 | 40 | 5 | 5.0 | 13.0 | 0.00 | 0.00 | 0.00 | 49 | 1014.0 |
| 20260505032554 | 40 | 5 | 4.0 | 13.0 | 0.00 | 0.00 | 0.00 | 49 | 1014.0 |
| 20260505032054 | 40 | 28 | 4.0 | 10.0 | 0.00 | 0.00 | 0.00 | 49 | 1013.9 |
| 20260505031553 | 40 | 23 | 4.0 | 10.0 | 0.00 | 0.00 | 0.00 | 49 | 1013.6 |
| 20260505031055 | 40 | 11 | 3.0 | 11.0 | 0.00 | 0.00 | 0.00 | 49 | 1013.6 |
| 20260505030553 | 41 | 28 | 3.0 | 11.0 | 0.00 | 0.00 | 0.00 | 48 | 1013.5 |
| 20260505030052 | 41 | 5 | 4.0 | 9.0 | 0.00 | 0.00 | 0.00 | 48 | 1013.5 |
| 20260505025549 | 41 | 5 | 4.0 | 9.0 | 0.00 | 0.00 | 0.00 | 48 | 1013.4 |
| 20260505025048 | 42 | 350 | 5.0 | 9.0 | 0.00 | 0.00 | 0.00 | 48 | 1013.3 |
| 20260505024547 | 42 | 355 | 4.0 | 9.0 | 0.00 | 0.00 | 0.00 | 47 | 1013.3 |
| 20260505024046 | 42 | 360 | 4.0 | 9.0 | 0.00 | 0.00 | 0.00 | 47 | 1013.1 |
| 20260505023647 | 42 | 360 | 4.0 | 8.0 | 0.00 | 0.00 | 0.00 | 47 | 1013.1 |
| 20260505023059 | 42 | 355 | 4.0 | 10.0 | 0.00 | 0.00 | 0.00 | 47 | 1013.0 |
| 20260505022551 | 43 | 25 | 5.0 | 10.0 | 0.00 | 0.00 | 0.00 | 46 | 1012.9 |
| 20260505022050 | 43 | 360 | 5.0 | 9.0 | 0.00 | 0.00 | 0.00 | 46 | 1012.9 |
| 20260505021546 | 43 | 12 | 4.0 | 8.0 | 0.00 | 0.00 | 0.00 | 46 | 1012.6 |
| 20260505021046 | 43 | 5 | 4.0 | 8.0 | 0.00 | 0.00 | 0.00 | 46 | 1012.7 |
| 20260505020545 | 43 | 5 | 3.0 | 12.0 | 0.00 | 0.00 | 0.00 | 46 | 1012.6 |
| 20260505020050 | 44 | 360 | 5.0 | 12.0 | 0.00 | 0.00 | 0.00 | 45 | 1012.6 |
| 20260505015545 | 44 | 360 | 6.0 | 10.0 | 0.00 | 0.00 | 0.00 | 45 | 1012.4 |
| 20260505015045 | 44 | 355 | 6.0 | 10.0 | 0.00 | 0.00 | 0.00 | 45 | 1012.3 |
| 20260505014545 | 44 | 5 | 4.0 | 11.0 | 0.00 | 0.00 | 0.00 | 45 | 1012.2 |
| 20260505014044 | 44 | 5 | 5.0 | 11.0 | 0.00 | 0.00 | 0.00 | 44 | 1012.2 |
| 20260505013643 | 44 | 350 | 5.0 | 11.0 | 0.00 | 0.00 | 0.00 | 44 | 1012.1 |
| 20260505013039 | 45 | 360 | 5.0 | 11.0 | 0.00 | 0.00 | 0.00 | 43 | 1012.0 |
| 20260505012539 | 45 | 355 | 4.0 | 8.0 | 0.00 | 0.00 | 0.00 | 44 | 1011.9 |
| 20260505012039 | 45 | 304 | 4.0 | 9.0 | 0.00 | 0.00 | 0.00 | 43 | 1011.8 |
| 20260505011539 | 45 | 24 | 4.0 | 14.0 | 0.00 | 0.00 | 0.00 | 43 | 1011.7 |
| 20260505011037 | 45 | 182 | 6.0 | 14.0 | 0.00 | 0.00 | 0.00 | 42 | 1011.5 |
| 20260505010536 | 46 | 5 | 5.0 | 11.0 | 0.00 | 0.00 | 0.00 | 42 | 1011.7 |
| 20260505010041 | 46 | 331 | 2.0 | 10.0 | 0.00 | 0.00 | 0.00 | 41 | 1011.6 |
| 20260505005536 | 46 | 5 | 3.0 | 10.0 | 0.00 | 0.00 | 0.00 | 41 | 1011.7 |
| 20260505005036 | 46 | 29 | 3.0 | 10.0 | 0.00 | 0.00 | 0.00 | 42 | 1011.4 |
| 20260505004544 | 47 | 274 | 4.0 | 14.0 | 0.00 | 0.00 | 0.00 | 41 | 1011.5 |
| 20260505004033 | 47 | 319 | 3.0 | 15.0 | 0.00 | 0.00 | 0.00 | 41 | 1011.4 |
| 20260505003534 | 48 | 315 | 4.0 | 12.0 | 0.00 | 0.00 | 0.00 | 39 | 1011.3 |
| 20260505003039 | 48 | 277 | 4.0 | 12.0 | 0.00 | 0.00 | 0.00 | 39 | 1011.3 |
| 20260505002537 | 49 | 11 | 6.0 | 15.0 | 0.00 | 0.00 | 0.00 | 39 | 1011.2 |
| 20260505002036 | 49 | 15 | 9.0 | 15.0 | 0.00 | 0.00 | 0.00 | 37 | 1011.1 |
| 20260505001536 | 50 | 22 | 7.0 | 13.0 | 0.00 | 0.00 | 0.00 | 38 | 1011.0 |
| 20260505001035 | 50 | 336 | 5.0 | 17.0 | 0.00 | 0.00 | 0.00 | 39 | 1010.9 |
| 20260505000539 | 49 | 26 | 9.0 | 17.0 | 0.00 | 0.00 | 0.00 | 40 | 1010.9 |
| 20260505000037 | 49 | 5 | 7.0 | 16.0 | 0.00 | 0.00 | 0.00 | 39 | 1011.0 |
| 20260504235535 | 49 | 360 | 5.0 | 15.0 | 0.00 | 0.00 | 0.00 | 42 | 1011.0 |
| 20260504235034 | 48 | 360 | 5.0 | 15.0 | 0.00 | 0.00 | 0.00 | 41 | 1010.9 |
| 20260504234550 | 48 | 355 | 3.0 | 15.0 | 0.00 | 0.00 | 0.00 | 41 | 1010.7 |
| 20260504234034 | 49 | 325 | 3.0 | 11.0 | 0.00 | 0.00 | 0.00 | 40 | 1010.8 |
| 20260504233635 | 51 | 360 | 4.0 | 14.0 | 0.00 | 0.00 | 0.00 | 39 | 1010.7 |
| 20260504233031 | 51 | 349 | 3.0 | 14.0 | 0.00 | 0.00 | 0.00 | 39 | 1010.9 |
| 20260504232529 | 51 | 11 | 6.0 | 15.0 | 0.00 | 0.00 | 0.00 | 39 | 1010.5 |
| 20260504232029 | 51 | 355 | 5.0 | 15.0 | 0.00 | 0.00 | 0.00 | 40 | 1010.5 |
| 20260504231539 | 50 | 299 | 6.0 | 19.0 | 0.00 | 0.00 | 0.00 | 40 | 1010.6 |
| 20260504231030 | 51 | 321 | 10.0 | 19.0 | 0.00 | 0.00 | 0.00 | 39 | 1010.6 |
| 20260504230528 | 52 | 293 | 6.0 | 14.0 | 0.00 | 0.00 | 0.00 | 39 | 1010.5 |
| 20260504230028 | 52 | 309 | 7.0 | 14.0 | 0.00 | 0.00 | 0.00 | 37 | 1010.4 |
| 20260504225528 | 53 | 5 | 6.0 | 12.0 | 0.00 | 0.00 | 0.00 | 39 | 1010.5 |
| 20260504225031 | 52 | 22 | 5.0 | 13.0 | 0.00 | 0.00 | 0.00 | 40 | 1010.4 |
| 20260504224529 | 53 | 304 | 6.0 | 14.0 | 0.00 | 0.00 | 0.00 | 38 | 1010.3 |
| 20260504224026 | 54 | 9 | 8.0 | 14.0 | 0.00 | 0.00 | 0.00 | 37 | 1010.2 |
| 20260504223626 | 53 | 35 | 7.0 | 15.0 | 0.00 | 0.00 | 0.00 | 38 | 1010.3 |
| 20260504223031 | 53 | 33 | 6.0 | 15.0 | 0.00 | 0.00 | 0.00 | 39 | 1010.3 |
| 20260504222530 | 52 | 349 | 6.0 | 13.0 | 0.00 | 0.00 | 0.00 | 40 | 1010.2 |
| 20260504222029 | 51 | 21 | 5.0 | 18.0 | 0.00 | 0.00 | 0.00 | 38 | 1010.2 |
| 20260504221529 | 52 | 11 | 7.0 | 18.0 | 0.00 | 0.00 | 0.00 | 38 | 1010.2 |
| 20260504221031 | 52 | 313 | 5.0 | 20.0 | 0.00 | 0.00 | 0.00 | 39 | 1010.2 |
| 20260504220529 | 52 | 296 | 10.0 | 20.0 | 0.00 | 0.00 | 0.00 | 37 | 1010.1 |
| 20260504220029 | 53 | 302 | 8.0 | 19.0 | 0.00 | 0.00 | 0.00 | 38 | 1010.1 |
| 20260504215529 | 52 | 293 | 7.0 | 19.0 | 0.00 | 0.00 | 0.00 | 38 | 1009.9 |
| 20260504215028 | 52 | 316 | 9.0 | 19.0 | 0.00 | 0.00 | 0.00 | 39 | 1010.1 |
| 20260504214535 | 52 | 330 | 9.0 | 16.0 | 0.00 | 0.00 | 0.00 | 38 | 1010.0 |
| 20260504214029 | 52 | 324 | 8.0 | 17.0 | 0.00 | 0.00 | 0.00 | 38 | 1010.1 |
| 20260504213629 | 53 | 312 | 9.0 | 21.0 | 0.00 | 0.00 | 0.00 | 38 | 1010.0 |
| 20260504213029 | 53 | 319 | 9.0 | 21.0 | 0.00 | 0.00 | 0.00 | 38 | 1010.1 |
| 20260504212528 | 52 | 20 | 7.0 | 23.0 | 0.00 | 0.00 | 0.00 | 38 | 1010.2 |
| 20260504212025 | 52 | 318 | 9.0 | 22.0 | 0.00 | 0.00 | 0.00 | 39 | 1010.1 |
| 20260504211525 | 52 | 298 | 8.0 | 19.0 | 0.00 | 0.00 | 0.00 | 38 | 1010.0 |
| 20260504211025 | 53 | 336 | 10.0 | 18.0 | 0.00 | 0.00 | 0.00 | 38 | 1010.1 |
| 20260504210525 | 52 | 40 | 5.0 | 17.0 | 0.00 | 0.00 | 0.00 | 39 | 1010.1 |
| 20260504210025 | 53 | 271 | 9.0 | 21.0 | 0.00 | 0.00 | 0.00 | 37 | 1010.1 |
| 20260504205529 | 53 | 345 | 11.0 | 21.0 | 0.00 | 0.00 | 0.00 | 38 | 1010.2 |
| 20260504205024 | 53 | 9 | 6.0 | 26.0 | 0.00 | 0.00 | 0.00 | 39 | 1010.0 |
| 20260504204551 | 52 | 305 | 11.0 | 26.0 | 0.00 | 0.00 | 0.00 | 39 | 1010.1 |
| 20260504204025 | 52 | 321 | 9.0 | 20.0 | 0.00 | 0.00 | 0.00 | 39 | 1010.1 |
| 20260504203624 | 53 | 323 | 9.0 | 25.0 | 0.00 | 0.00 | 0.00 | 39 | 1010.0 |
| 20260504203028 | 53 | 284 | 10.0 | 25.0 | 0.00 | 0.00 | 0.00 | 39 | 1010.0 |
| 20260504202523 | 53 | 326 | 11.0 | 20.0 | 0.00 | 0.00 | 0.00 | 39 | 1010.1 |
| 20260504202022 | 52 | 332 | 10.0 | 17.0 | 0.00 | 0.00 | 0.00 | 39 | 1010.0 |
| 20260504201522 | 53 | 334 | 9.0 | 16.0 | 0.00 | 0.00 | 0.00 | 37 | 1010.0 |
| 20260504201020 | 53 | 308 | 5.0 | 16.0 | 0.00 | 0.00 | 0.00 | 39 | 1010.0 |
| 20260504200521 | 52 | 304 | 7.0 | 19.0 | 0.00 | 0.00 | 0.00 | 40 | 1010.0 |
| 20260504200028 | 53 | 292 | 9.0 | 19.0 | 0.00 | 0.00 | 0.00 | 38 | 1010.1 |
| 20260504195519 | 52 | 302 | 8.0 | 19.0 | 0.00 | 0.00 | 0.00 | 41 | 1010.0 |
| 20260504195020 | 53 | 347 | 7.0 | 15.0 | 0.00 | 0.00 | 0.00 | 41 | 1010.1 |
| 20260504194521 | 52 | 319 | 6.0 | 20.0 | 0.00 | 0.00 | 0.00 | 42 | 1010.0 |
| 20260504194023 | 51 | 317 | 10.0 | 20.0 | 0.00 | 0.00 | 0.00 | 40 | 1010.1 |
| 20260504193620 | 52 | 341 | 8.0 | 17.0 | 0.00 | 0.00 | 0.00 | 41 | 1010.0 |
| 20260504193025 | 52 | 287 | 7.0 | 17.0 | 0.00 | 0.00 | 0.00 | 41 | 1010.0 |
| 20260504192526 | 51 | 319 | 8.0 | 17.0 | 0.00 | 0.00 | 0.00 | 42 | 1010.0 |
| 20260504192024 | 51 | 333 | 5.0 | 20.0 | 0.00 | 0.00 | 0.00 | 42 | 1010.0 |
| 20260504191523 | 52 | 332 | 7.0 | 20.0 | 0.00 | 0.00 | 0.00 | 41 | 1010.0 |
| 20260504191024 | 53 | 321 | 8.0 | 17.0 | 0.00 | 0.00 | 0.00 | 40 | 1009.9 |
| 20260504190523 | 52 | 328 | 7.0 | 17.0 | 0.00 | 0.00 | 0.00 | 42 | 1010.0 |
| 20260504190023 | 52 | 232 | 6.0 | 18.0 | 0.00 | 0.00 | 0.00 | 41 | 1010.0 |
| 20260504185522 | 51 | 316 | 9.0 | 18.0 | 0.00 | 0.00 | 0.00 | 44 | 1010.0 |
| 20260504185022 | 50 | 269 | 6.0 | 15.0 | 0.00 | 0.00 | 0.00 | 45 | 1010.1 |
| 20260504184522 | 50 | 18 | 5.0 | 17.0 | 0.00 | 0.00 | 0.00 | 44 | 1009.9 |
| 20260504184024 | 49 | 360 | 6.0 | 20.0 | 0.00 | 0.00 | 0.00 | 46 | 1009.9 |
| 20260504183623 | 49 | 346 | 6.0 | 16.0 | 0.00 | 0.00 | 0.00 | 44 | 1010.1 |
| 20260504183017 | 49 | 14 | 8.0 | 16.0 | 0.00 | 0.00 | 0.00 | 43 | 1009.9 |
| 20260504182519 | 49 | 322 | 6.0 | 20.0 | 0.00 | 0.00 | 0.00 | 44 | 1009.8 |
| 20260504182016 | 49 | 308 | 10.0 | 20.0 | 0.00 | 0.00 | 0.00 | 43 | 1009.9 |
| 20260504181516 | 49 | 313 | 5.0 | 18.0 | 0.00 | 0.00 | 0.00 | 44 | 1009.9 |
| 20260504181017 | 49 | 327 | 7.0 | 18.0 | 0.00 | 0.00 | 0.00 | 44 | 1009.8 |
| 20260504180516 | 50 | 315 | 8.0 | 25.0 | 0.00 | 0.00 | 0.00 | 43 | 1009.9 |
| 20260504180017 | 51 | 342 | 10.0 | 25.0 | 0.00 | 0.00 | 0.00 | 41 | 1009.9 |
| 20260504175516 | 51 | 281 | 7.0 | 16.0 | 0.00 | 0.00 | 0.00 | 43 | 1009.6 |
| 20260504175016 | 50 | 15 | 7.0 | 18.0 | 0.00 | 0.00 | 0.00 | 44 | 1009.6 |
| 20260504174515 | 50 | 293 | 8.0 | 18.0 | 0.00 | 0.00 | 0.00 | 44 | 1009.8 |
| 20260504174016 | 50 | 320 | 10.0 | 18.0 | 0.00 | 0.00 | 0.00 | 43 | 1009.8 |
| 20260504173516 | 51 | 316 | 7.0 | 16.0 | 0.00 | 0.00 | 0.00 | 43 | 1009.7 |
| 20260504173018 | 51 | 265 | 7.0 | 16.0 | 0.00 | 0.00 | 0.00 | 44 | 1009.7 |
| 20260504172518 | 51 | 305 | 10.0 | 16.0 | 0.00 | 0.00 | 0.00 | 43 | 1009.7 |
| 20260504172020 | 51 | 298 | 9.0 | 20.0 | 0.00 | 0.00 | 0.00 | 43 | 1009.7 |
| 20260504171534 | 51 | 302 | 11.0 | 25.0 | 0.00 | 0.00 | 0.00 | 42 | 1009.6 |
| 20260504171018 | 51 | 306 | 10.0 | 25.0 | 0.00 | 0.00 | 0.00 | 43 | 1009.6 |
| 20260504170518 | 52 | 305 | 10.0 | 19.0 | 0.00 | 0.00 | 0.00 | 41 | 1009.7 |
| 20260504151011 | 50 | 305 | 8.0 | 20.0 | 0.00 | 0.00 | 0.00 | 47 | 1009.1 |
| 20260504150512 | 49 | 310 | 8.0 | 20.0 | 0.00 | 0.00 | 0.00 | 47 | 1009.2 |
| 20260504141009 | 48 | 314 | 3.0 | 10.0 | 0.00 | 0.00 | 0.00 | 54 | 1009.1 |
| 20260504140509 | 47 | 355 | 2.0 | 10.0 | 0.00 | 0.00 | 0.00 | 54 | 1009.3 |
| 20260504130505 | 44 | 347 | 2.0 | 5.0 | 0.00 | 0.00 | 0.00 | 59 | 1009.0 |
| 20260504110548 | 44 | 339 | 0.0 | 4.0 | 0.00 | 0.00 | 0.00 | 53 | 1007.4 |
| 20260504100542 | 46 | 360 | 4.0 | 6.0 | 0.00 | 0.00 | 0.00 | 50 | 1007.0 |
| 20260504081558 | 50 | 312 | 3.0 | 8.0 | 0.00 | 0.00 | 0.00 | 55 | 1006.0 |
| 20260504081053 | 50 | 327 | 0.0 | 4.0 | 0.00 | 0.00 | 0.00 | 53 | 1006.0 |
| 20260504080553 | 50 | 344 | 1.0 | 4.0 | 0.00 | 0.00 | 0.00 | 51 | 1005.7 |
| 20260504070154 | 53 | 13 | 7.0 | 14.0 | 0.00 | 0.00 | 0.00 | 44 | 1004.8 |
| 20260504060141 | 51 | 16 | 2.0 | 3.0 | 0.00 | 0.00 | 0.00 | 50 | 1003.7 |